Location: Leuk
(46.3174°N, 7.6341°E)
Time: 13:23:18
(UTC+00:00)

NOSS 3-2 (A) - Pass Details

Date: 09 March 2021
Orbit: 779 x 1428 km, 63.4° (Epoch: 18 April)

Event Time Altitude Azimuth Distance (km) Brightness Sun altitude
Rises 03:32:53 0° 319° (NW) 3,980 6.5 -24.7°
Reaches altitude 10° 03:35:27 10° 316° (NW) 3,104 5.9 -24.3°
Maximum altitude 03:42:57 65° 237° (WSW) 1,417 4.0 -23.1°
Drops below altitude 10° 03:51:23 10° 159° (SSE) 3,472 6.4 -21.7°
Sets 03:54:25 0° 156° (SSE) 4,478 7.0 -21.2°
